When you browse on this site, cookies collect data to enhance your experience and personalize the content and advertising you see.
Visit our Privacy Policy to learn more. By continuing to use the site, you agree to this use of cookies and data.
  • în România
  • Lista ţărilor
  • Pe 7 zile
  • Temperatura apei
  • Meteo pe hartă
  • Widget-uri
  • user-avatar
    Intrare

    Meteo pe oră la Shannon

    Astăzi, 25 August, Duminică

    Timp Temperatura Precipitaţii Vânt Presiune Umiditate
    00:00 +15°C° 0 mm 2 m/s 761 mmHg 95%
    01:00 +15°C° 0 mm 2 m/s 761 mmHg 96%
    02:00 +14°C° 0 mm 1 m/s 761 mmHg 97%
    03:00 +14°C° 0 mm 2 m/s 761 mmHg 97%
    04:00 +14°C° 0 mm 2 m/s 761 mmHg 97%
    05:00 +14°C° 0 mm 2 m/s 761 mmHg 97%
    06:00 +15°C° 0 mm 2 m/s 762 mmHg 94%
    07:00 +16°C° 0 mm 2 m/s 762 mmHg 90%
    08:00 +17°C° 0 mm 2 m/s 763 mmHg 87%
    09:00 +18°C° 0 mm 3 m/s 763 mmHg 85%
    10:00 +18°C° 0 mm 3 m/s 763 mmHg 83%
    11:00 +19°C° 0 mm 3 m/s 763 mmHg 81%
    12:00 +19°C° 0 mm 3 m/s 763 mmHg 79%
    13:00 +19°C° 0 mm 4 m/s 763 mmHg 77%
    14:00 +19°C° 0 mm 4 m/s 763 mmHg 75%
    15:00 +19°C° 0 mm 3 m/s 763 mmHg 77%
    16:00 +18°C° 0 mm 3 m/s 763 mmHg 79%
    17:00 +17°C° 0 mm 3 m/s 763 mmHg 82%
    18:00 +15°C° 0 mm 2 m/s 763 mmHg 86%
    19:00 +14°C° 0 mm 2 m/s 764 mmHg 91%
    20:00 +12°C° 0 mm 1 m/s 764 mmHg 95%
    21:00 +12°C° 0 mm 1 m/s 764 mmHg 96%
    22:00 +11°C° 0 mm 1 m/s 764 mmHg 96%
    23:00 +11°C° 0 mm 1 m/s 764 mmHg 96%

    Mâine, 26 August, Luni

    Timp Temperatura Precipitaţii Vânt Presiune Umiditate
    00:00 +11°C° 0 mm 1 m/s 763 mmHg 96%
    01:00 +11°C° 0 mm 1 m/s 763 mmHg 96%
    02:00 +10°C° 0 mm 1 m/s 763 mmHg 97%
    03:00 +10°C° 0 mm 1 m/s 763 mmHg 96%
    04:00 +10°C° 0 mm 1 m/s 763 mmHg 96%
    05:00 +10°C° 0 mm 1 m/s 762 mmHg 96%
    06:00 +12°C° 0 mm 1 m/s 762 mmHg 91%
    07:00 +14°C° 0 mm 2 m/s 762 mmHg 87%
    08:00 +15°C° 0 mm 2 m/s 762 mmHg 83%
    09:00 +17°C° 0 mm 2 m/s 762 mmHg 78%
    10:00 +18°C° 0 mm 2 m/s 762 mmHg 73%
    11:00 +19°C° 0 mm 2 m/s 762 mmHg 69%
    12:00 +19°C° 0 mm 3 m/s 762 mmHg 69%
    13:00 +20°C° 0 mm 3 m/s 762 mmHg 69%
    14:00 +20°C° 0 mm 3 m/s 762 mmHg 70%
    15:00 +19°C° 0.1 mm 3 m/s 761 mmHg 76%
    16:00 +18°C° 0.1 mm 3 m/s 761 mmHg 82%
    17:00 +16°C° 0.1 mm 3 m/s 761 mmHg 87%
    18:00 +16°C° 0.2 mm 3 m/s 761 mmHg 89%
    19:00 +15°C° 0.2 mm 2 m/s 761 mmHg 91%
    20:00 +15°C° 0.2 mm 2 m/s 761 mmHg 93%
    21:00 +15°C° 0.2 mm 2 m/s 761 mmHg 94%
    22:00 +15°C° 0.2 mm 2 m/s 761 mmHg 95%
    23:00 +14°C° 0.2 mm 2 m/s 761 mmHg 96%

    Poimâine, 27 August, Marţi

    Timp Temperatura Precipitaţii Vânt Presiune Umiditate
    00:00 +14°C° 0.1 mm 2 m/s 760 mmHg 96%
    01:00 +14°C° 0.1 mm 2 m/s 760 mmHg 96%
    02:00 +14°C° 0.1 mm 2 m/s 760 mmHg 96%
    03:00 +14°C° 0 mm 2 m/s 760 mmHg 96%
    04:00 +14°C° 0 mm 2 m/s 760 mmHg 96%
    05:00 +13°C° 0 mm 3 m/s 759 mmHg 96%
    06:00 +14°C° 0.2 mm 3 m/s 759 mmHg 95%
    07:00 +14°C° 0.2 mm 3 m/s 759 mmHg 95%
    08:00 +14°C° 0.2 mm 3 m/s 759 mmHg 94%
    09:00 +17°C° 0.1 mm 4 m/s 759 mmHg 90%
    10:00 +18°C° 0.1 mm 4 m/s 759 mmHg 86%
    11:00 +19°C° 0.1 mm 5 m/s 759 mmHg 82%
    12:00 +19°C° 0.2 mm 5 m/s 759 mmHg 83%
    13:00 +19°C° 0.2 mm 5 m/s 758 mmHg 84%
    14:00 +19°C° 0.2 mm 5 m/s 758 mmHg 85%
    15:00 +17°C° 1.4 mm 5 m/s 758 mmHg 88%
    16:00 +17°C° 1.4 mm 4 m/s 758 mmHg 92%
    17:00 +15°C° 1.4 mm 4 m/s 758 mmHg 96%
    18:00 +14°C° 1.7 mm 4 m/s 758 mmHg 96%
    19:00 +14°C° 1.7 mm 4 m/s 758 mmHg 96%
    20:00 +14°C° 1.7 mm 4 m/s 758 mmHg 96%
    21:00 +14°C° 0.3 mm 3 m/s 758 mmHg 96%
    22:00 +14°C° 0.3 mm 3 m/s 758 mmHg 97%
    23:00 +15°C° 0.3 mm 2 m/s 758 mmHg 97%

    28 August, Miercuri

    Timp Temperatura Precipitaţii Vânt Presiune Umiditate
    00:00 +15°C° 0.1 mm 2 m/s 757 mmHg 97%
    01:00 +14°C° 0.1 mm 2 m/s 757 mmHg 97%
    02:00 +14°C° 0.1 mm 2 m/s 757 mmHg 96%
    03:00 +13°C° 0 mm 2 m/s 757 mmHg 96%
    04:00 +13°C° 0 mm 2 m/s 757 mmHg 95%
    05:00 +13°C° 0 mm 2 m/s 757 mmHg 95%
    06:00 +13°C° 0 mm 2 m/s 757 mmHg 92%
    07:00 +13°C° 0 mm 3 m/s 757 mmHg 90%
    08:00 +13°C° 0 mm 3 m/s 757 mmHg 87%
    09:00 +14°C° 0 mm 3 m/s 757 mmHg 82%
    10:00 +14°C° 0 mm 3 m/s 757 mmHg 76%
    11:00 +15°C° 0 mm 4 m/s 757 mmHg 71%
    12:00 +15°C° 0 mm 4 m/s 757 mmHg 69%
    13:00 +17°C° 0 mm 4 m/s 757 mmHg 67%
    14:00 +17°C° 0 mm 4 m/s 757 mmHg 65%
    15:00 +15°C° 0 mm 4 m/s 758 mmHg 69%
    16:00 +16°C° 0 mm 3 m/s 758 mmHg 73%
    17:00 +14°C° 0 mm 3 m/s 758 mmHg 77%
    18:00 +13°C° 0 mm 3 m/s 758 mmHg 82%
    19:00 +12°C° 0 mm 3 m/s 759 mmHg 88%
    20:00 +11°C° 0 mm 3 m/s 759 mmHg 93%
    21:00 +10°C° 0 mm 3 m/s 759 mmHg 94%
    22:00 +10°C° 0 mm 2 m/s 760 mmHg 94%
    23:00 +9°C° 0 mm 2 m/s 760 mmHg 94%

    29 August, Joi

    Timp Temperatura Precipitaţii Vânt Presiune Umiditate
    00:00 +9°C° 0 mm 3 m/s 760 mmHg 94%
    01:00 +9°C° 0 mm 3 m/s 760 mmHg 94%
    02:00 +9°C° 0 mm 3 m/s 759 mmHg 94%
    03:00 +10°C° 0 mm 3 m/s 759 mmHg 92%
    04:00 +10°C° 0 mm 3 m/s 759 mmHg 91%
    05:00 +11°C° 0 mm 4 m/s 759 mmHg 90%
    06:00 +12°C° 0 mm 4 m/s 759 mmHg 88%
    07:00 +13°C° 0 mm 5 m/s 759 mmHg 86%
    08:00 +15°C° 0 mm 5 m/s 760 mmHg 85%
    09:00 +15°C° 0.2 mm 6 m/s 760 mmHg 84%
    10:00 +16°C° 0.2 mm 6 m/s 760 mmHg 83%
    11:00 +16°C° 0.2 mm 6 m/s 760 mmHg 82%
    12:00 +16°C° 0.2 mm 6 m/s 760 mmHg 82%
    13:00 +16°C° 0.2 mm 7 m/s 760 mmHg 82%
    14:00 +16°C° 0.2 mm 7 m/s 760 mmHg 82%
    15:00 +16°C° 0.1 mm 6 m/s 760 mmHg 84%
    16:00 +16°C° 0.1 mm 6 m/s 760 mmHg 86%
    17:00 +15°C° 0.1 mm 5 m/s 760 mmHg 88%
    18:00 +15°C° 0.1 mm 5 m/s 761 mmHg 89%
    19:00 +14°C° 0.1 mm 5 m/s 761 mmHg 90%
    20:00 +14°C° 0.1 mm 4 m/s 761 mmHg 91%
    21:00 +14°C° 0.1 mm 4 m/s 761 mmHg 92%
    22:00 +13°C° 0.1 mm 4 m/s 761 mmHg 93%
    23:00 +13°C° 0.1 mm 4 m/s 761 mmHg 93%

    30 August, Vineri

    Timp Temperatura Precipitaţii Vânt Presiune Umiditate
    00:00 +13°C° 0 mm 4 m/s 762 mmHg 93%
    01:00 +13°C° 0 mm 4 m/s 762 mmHg 92%
    02:00 +13°C° 0 mm 4 m/s 762 mmHg 92%
    03:00 +13°C° 0 mm 4 m/s 762 mmHg 93%
    04:00 +13°C° 0 mm 4 m/s 762 mmHg 93%
    05:00 +13°C° 0 mm 3 m/s 762 mmHg 93%
    06:00 +14°C° 0 mm 4 m/s 762 mmHg 91%
    07:00 +15°C° 0 mm 4 m/s 762 mmHg 88%
    08:00 +15°C° 0 mm 4 m/s 762 mmHg 86%
    09:00 +17°C° 0.1 mm 4 m/s 761 mmHg 84%
    10:00 +16°C° 0.1 mm 5 m/s 761 mmHg 82%
    11:00 +17°C° 0.1 mm 5 m/s 761 mmHg 79%
    12:00 +16°C° 0.1 mm 5 m/s 760 mmHg 81%
    13:00 +16°C° 0.1 mm 5 m/s 759 mmHg 83%
    14:00 +15°C° 0.1 mm 5 m/s 758 mmHg 85%
    15:00 +15°C° 0.4 mm 5 m/s 757 mmHg 87%
    16:00 +15°C° 0.4 mm 6 m/s 756 mmHg 89%
    17:00 +15°C° 0.4 mm 7 m/s 756 mmHg 91%
    18:00 +15°C° 0.2 mm 7 m/s 756 mmHg 92%
    19:00 +15°C° 0.2 mm 6 m/s 756 mmHg 93%
    20:00 +16°C° 0.2 mm 6 m/s 756 mmHg 94%
    21:00 +14°C° 0 mm 6 m/s 756 mmHg 94%
    22:00 +13°C° 0 mm 5 m/s 757 mmHg 93%
    23:00 +11°C° 0 mm 4 m/s 757 mmHg 93%
    Arată mai mult